Weather History for Tampa Macdill AFB, FL

Change the Weather History Date:

Friday, December 7, 2012

  Actual Average Record
Temperature  
Mean Temperature 70 °F -  
Max Temperature 79 °F 73 °F 86 °F (1998)
Min Temperature 61 °F 55 °F 32 °F (2010)
Cooling Degree Days 5    
Growing Degree Days 20 (Base 50)    
Moisture  
Dew Point 64 °F    
Average Humidity 96    
Maximum Humidity 100    
Minimum Humidity 67    
Precipitation  
Precipitation 0.00 in - - ()
Sea Level Pressure  
Sea Level Pressure 29.98 in    
Wind  
Wind Speed 8 mph (ENE)    
Max Wind Speed 12 mph    
Max Gust Speed -    
Visibility 5 miles    
Events Fog    
Averages and records for this station are not official NWS values.
T = Trace of Precipitation, MM = Missing Value Source: NWS Daily Summary

Daily Weather History Graph

Daily Weather History Graph

Search for Another Location

Airport:

Trip Planner

Search our weather history database for the weather conditions in past years. The results will help you decide how hot, cold, wet, or windy it might be!

Date:

Astronomy

Dec. 07, 2012 Rise Set
Actual Time 7:08 AM EST 5:34 PM EST
Civil Twilight 6:43 AM EST 6:00 PM EST
Nautical Twilight 6:13 AM EST 6:29 PM EST
Astronomical Twilight 5:45 AM EST 6:58 PM EST
Moon 12:54 AM EST (12/7) 1:06 PM EST (12/7)
Length of Visible Light 11h 17m
Length of Day
10h 26m
Last Quarter, 39% of the Moon is Illuminated
Dec 7
Last Quarter
Dec 13
New
Dec 20
First Quarter
Dec 28
Full
Jan 4
Last Quarter

Hourly Weather History & Observations

Time (EST) Temp. Dew Point Humidity Pressure Visibility Wind Dir Wind Speed Gust Speed Precip Events Conditions
12:55 AM 62.8 °F 61.2 °F 94% 29.97 in 10.0 mi ENE 6.9 mph - N/A   Clear
1:55 AM 63.1 °F 62.6 °F 98% 29.97 in 10.0 mi ENE 9.2 mph - N/A   Clear
2:55 AM 62.8 °F 62.4 °F 99% 29.96 in 10.0 mi East 8.1 mph - N/A   Clear
3:55 AM 62.4 °F 62.1 °F 99% 29.96 in 10.0 mi East 8.1 mph - N/A   Clear
4:24 AM 62.6 °F 62.6 °F 100% 29.96 in 9.0 mi East 9.2 mph - N/A   Clear
4:34 AM 62.6 °F 62.6 °F 100% 29.96 in 7.0 mi East 10.4 mph - N/A   Mostly Cloudy
4:42 AM 62.6 °F 62.6 °F 100% 29.96 in 5.0 mi East 9.2 mph - N/A   Mostly Cloudy
4:53 AM 62.6 °F 62.6 °F 100% 29.96 in 4.0 mi ENE 9.2 mph - N/A   Overcast
4:55 AM 62.8 °F 62.8 °F 100% 29.96 in 4.0 mi East 9.2 mph - N/A   Overcast
5:01 AM 62.6 °F 62.6 °F 100% 29.96 in 2.5 mi ENE 8.1 mph - N/A   Overcast
5:05 AM 62.6 °F 62.6 °F 100% 29.95 in 1.8 mi ENE 9.2 mph - N/A   Overcast
5:06 AM 62.6 °F 62.6 °F 100% 29.96 in 1.8 mi ENE 8.1 mph - N/A   Overcast
5:19 AM 62.6 °F 62.6 °F 100% 29.95 in 1.8 mi ENE 8.1 mph - N/A   Overcast
5:21 AM 62.6 °F 62.6 °F 100% 29.95 in 2.0 mi ENE 8.1 mph - N/A   Overcast
5:29 AM 62.6 °F 62.6 °F 100% 29.96 in 1.8 mi ENE 10.4 mph - N/A   Overcast
5:32 AM 62.6 °F 62.6 °F 100% 29.96 in 1.5 mi ENE 9.2 mph - N/A   Overcast
5:40 AM 62.6 °F 62.6 °F 100% 29.96 in 1.2 mi ENE 8.1 mph - N/A   Overcast
5:42 AM 62.6 °F 62.6 °F 100% 29.96 in 1.0 mi ENE 9.2 mph - N/A   Mist
5:44 AM 62.6 °F 62.6 °F 100% 29.96 in 0.8 mi ENE 9.2 mph - N/A   Mist
5:48 AM 62.6 °F 62.6 °F 100% 29.96 in 0.5 mi ENE 9.2 mph - N/A Fog Fog
5:49 AM 62.6 °F 62.6 °F 100% 29.96 in 0.5 mi ENE 9.2 mph - N/A Fog Fog
5:55 AM 62.2 °F 62.2 °F 100% 29.96 in 0.8 mi ENE 10.4 mph - N/A   Mist
6:04 AM 62.6 °F 62.6 °F 100% 29.96 in 0.5 mi ENE 11.5 mph - N/A Fog Fog
6:11 AM 62.6 °F 62.6 °F 100% 29.96 in 0.8 mi ENE 10.4 mph - N/A   Mist
6:16 AM 62.6 °F 62.6 °F 100% 29.96 in 0.8 mi ENE 11.5 mph - N/A   Mist
6:17 AM 62.6 °F 62.6 °F 100% 29.96 in 0.8 mi ENE 10.4 mph - N/A   Mist
6:22 AM 62.6 °F 62.6 °F 100% 29.96 in 0.8 mi ENE 10.4 mph - N/A   Mist
6:27 AM 62.6 °F 62.6 °F 100% 29.97 in 0.8 mi ENE 10.4 mph - N/A   Mist
6:28 AM 62.6 °F 62.6 °F 100% 29.97 in 1.0 mi ENE 10.4 mph - N/A   Mist
6:40 AM 62.6 °F 62.6 °F 100% 29.97 in 1.2 mi NE 9.2 mph - N/A   Overcast
6:42 AM 62.6 °F 62.6 °F 100% 29.97 in 1.5 mi ENE 8.1 mph - N/A   Overcast
6:45 AM 62.6 °F 62.6 °F 100% 29.97 in 2.0 mi NE 6.9 mph - N/A   Overcast
6:55 AM 61.7 °F 61.7 °F 100% 29.98 in 2.5 mi ENE 6.9 mph - N/A   Overcast
6:58 AM 62.6 °F 62.6 °F 100% 29.98 in 3.0 mi ENE 8.1 mph - N/A   Overcast
7:02 AM 62.6 °F 62.6 °F 100% 29.98 in 2.5 mi ENE 6.9 mph - N/A   Overcast
7:07 AM 62.6 °F 62.6 °F 100% 29.98 in 1.8 mi ENE 5.8 mph - N/A   Overcast
7:11 AM 62.6 °F 62.6 °F 100% 29.98 in 1.2 mi NE 3.5 mph - N/A   Overcast
7:20 AM 62.6 °F 62.6 °F 100% 29.98 in 1.5 mi ENE 8.1 mph - N/A   Overcast
7:27 AM 62.6 °F 62.6 °F 100% 29.98 in 2.0 mi ENE 8.1 mph - N/A   Overcast
7:54 AM 62.6 °F 62.6 °F 100% 29.99 in 3.0 mi ENE 6.9 mph - N/A   Overcast
7:55 AM 62.1 °F 62.1 °F 100% 29.99 in 3.0 mi ENE 6.9 mph - N/A   Overcast
8:39 AM 62.6 °F 62.6 °F 100% 30.00 in 9.0 mi ENE 6.9 mph - N/A   Overcast
8:55 AM 63.7 °F 63.7 °F 100% 30.01 in 9.0 mi ENE 10.4 mph - N/A   Overcast
9:55 AM 64.4 °F 64.4 °F 100% 30.03 in 8.0 mi East 10.4 mph - N/A   Overcast
9:56 AM 64.4 °F 64.4 °F 100% 30.03 in 9.0 mi East 10.4 mph - N/A   Overcast
10:20 AM 66.2 °F 66.2 °F 100% 30.03 in 10.0 mi East 11.5 mph - N/A   Overcast
10:38 AM 66.2 °F 66.2 °F 100% 30.03 in 10.0 mi East 11.5 mph - N/A   Overcast
10:52 AM 66.2 °F 66.2 °F 100% 30.03 in 10.0 mi East 10.4 mph - N/A   Overcast
10:55 AM 66.6 °F 65.5 °F 96% 30.03 in 10.0 mi East 8.1 mph - N/A   Overcast
11:10 AM 68.0 °F 64.4 °F 88% 30.02 in 10.0 mi ESE 8.1 mph - N/A   Overcast
11:55 AM 69.8 °F 66.4 °F 89% 30.00 in 10.0 mi ENE 6.9 mph - N/A   Overcast
12:16 PM 73.4 °F 68.0 °F 83% 30.00 in 10.0 mi ENE 4.6 mph - N/A   Scattered Clouds
12:55 PM 75.6 °F 66.7 °F 74% 29.98 in 10.0 mi Variable 6.9 mph - N/A   Clear
1:55 PM 79.7 °F 68.0 °F 67% 29.96 in 10.0 mi West 4.6 mph - N/A   Clear
2:55 PM 79.3 °F 68.4 °F 69% 29.94 in 10.0 mi SE 6.9 mph - N/A   Clear
3:55 PM 78.6 °F 67.5 °F 68% 29.94 in 10.0 mi North 5.8 mph - N/A   Clear
4:55 PM 77.5 °F 66.4 °F 68% 29.94 in 10.0 mi Calm Calm - N/A   Clear
5:55 PM 71.2 °F 64.6 °F 79% 29.95 in 10.0 mi North 4.6 mph - N/A   Clear
6:55 PM 68.4 °F 63.7 °F 85% 29.96 in 10.0 mi NNE 4.6 mph - N/A   Clear
7:55 PM 66.9 °F 63.5 °F 89% 29.97 in 10.0 mi Calm Calm - N/A   Clear
8:55 PM 65.5 °F 63.5 °F 93% 29.99 in 10.0 mi NE 4.6 mph - N/A   Clear
9:55 PM 62.8 °F 61.5 °F 96% 29.99 in 10.0 mi ENE 5.8 mph - N/A   Clear
10:55 PM 63.7 °F 63.3 °F 99% 30.00 in 10.0 mi East 9.2 mph - N/A   Clear
11:55 PM 67.1 °F 66.4 °F 98% 30.00 in 10.0 mi East 8.1 mph - N/A   Overcast